MST,Max TemperatureF,Mean TemperatureF,Min TemperatureF,Max Dew PointF,MeanDew PointF,Min DewpointF,Max Humidity, Mean Humidity, Min Humidity, Max Sea Level PressureIn, Mean Sea Level PressureIn, Min Sea Level PressureIn, Max VisibilityMiles, Mean VisibilityMiles, Min VisibilityMiles, Max Wind SpeedMPH, Mean Wind SpeedMPH, Max Gust SpeedMPH,PrecipitationIn, CloudCover, Events, WindDirDegrees
2013-2-1,37,32,26,25,23,19,86,75,48,30.32,30.22,30.17,10,10,10,25,7,32,0.00,7,,146
2013-2-2,41,28,14,23,17,12,93,78,33,30.47,30.39,30.32,10,10,10,8,4,,0.00,0,,107
2013-2-3,35,25,15,21,16,12,93,80,48,30.36,30.22,30.04,10,10,10,7,2,,0.00,2,,105
2013-2-4,42,26,10,19,14,9,92,76,31,30.18,30.12,30.03,10,10,10,9,2,,0.00,1,,100
2013-2-5,44,28,12,23,15,9,92,77,31,30.21,30.11,29.97,10,10,10,7,2,,0.00,0,,105
2013-2-6,39,27,15,30,21,14,100,88,60,30.11,29.98,29.90,10,9,1,17,3,23,0.00,3,Snow,97
2013-2-7,37,26,15,28,19,12,100,83,48,30.25,30.14,30.07,10,8,3,8,4,,0.00,4,,84
2013-2-8,55,32,10,30,16,9,92,79,33,30.07,29.89,29.66,10,10,10,16,3,28,0.00,2,,88
2013-2-9,33,22,8,30,24,9,100,89,56,29.68,29.61,29.51,10,7,0,13,4,,0.02,6,Rain-Snow,70
2013-2-10,33,22,10,18,10,7,92,80,32,29.87,29.74,29.68,10,10,9,9,5,,0.00,3,,90
2013-2-11,28,20,12,18,13,10,93,84,55,30.05,29.92,29.85,10,8,1,16,3,22,0.00,7,Snow,190
2013-2-12,26,14,1,12,6,-2,92,76,43,30.19,30.12,30.05,10,10,5,9,5,,0.00,2,,91
2013-2-13,35,26,17,19,15,12,86,72,48,30.19,30.14,30.06,10,10,10,16,3,18,0.00,4,,136
2013-2-14,35,28,21,19,17,9,93,72,35,30.21,30.12,30.07,10,10,10,15,5,22,0.00,4,,151
2013-2-15,35,26,17,19,15,7,93,71,30,30.40,30.28,30.21,10,10,7,17,5,21,0.00,4,,112
2013-2-16,44,26,8,18,12,5,92,71,31,30.42,30.29,30.13,10,10,10,18,4,,0.00,0,,114
2013-2-17,44,28,12,23,13,9,92,70,25,30.12,29.91,29.65,10,10,5,20,3,31,0.00,5,Snow,177
2013-2-18,35,24,12,21,13,5,93,75,30,30.09,29.97,29.84,10,10,5,20,5,30,0.00,2,,105
2013-2-19,35,19,3,18,7,1,92,69,30,30.08,29.93,29.71,10,10,10,6,2,,0.00,3,,115
2013-2-20,37,24,12,27,12,9,86,71,33,29.71,29.62,29.45,10,10,10,8,2,,0.00,8,,115
2013-2-21,35,27,17,30,23,16,93,88,74,29.85,29.73,29.60,10,6,1,14,5,21,0.00,7,Snow,53
2013-2-22,28,20,10,19,14,7,100,86,63,30.00,29.90,29.85,10,8,2,10,3,,0.00,6,Snow,102
2013-2-23,33,20,6,27,12,3,100,83,52,29.98,29.84,29.62,10,8,2,8,1,,0.00,6,Snow,168
2013-2-24,28,20,10,25,17,7,100,86,51,30.03,29.78,29.64,10,6,1,16,5,21,0.00,6,Snow,274
2013-2-25,33,17,1,12,5,-2,92,79,35,30.15,30.03,29.88,10,10,10,12,2,,0.00,1,,102
2013-2-26,26,20,15,21,15,9,100,85,64,30.13,29.90,29.81,10,6,1,8,1,,0.00,8,Snow,68
2013-2-27,30,18,5,16,8,3,100,77,37,30.29,30.21,30.14,10,9,2,14,4,,0.00,1,,102
2013-2-28,33,16,0,21,5,-4,92,71,30,30.40,30.34,30.26,10,10,10,22,4,26,0.00,4,,148